Back to catalog

CZ-6A DEB

AlivePO
NORAD 61103·DEBRIS·🇨🇳 China

Launched Aug 6, 2024 from Taiyuan Satellite Launch Center

Loading…

Next Passes (next 24 hours)

TLE

FreshSource: Space-Track

Epoch: Sep 13, 2026, 11:55 UTC

1 61103U 24140NV  26256.49697246  .00000502  00000-0  15297-3 0  9994
2 61103  88.9701 259.4377 0043737 350.2991   9.7361 14.39983329107360

Track CZ-6A DEB in real time with AllMySat

Download on the App Store